{"data":{"norad_id":61702,"epoch":"2026-09-20T21:39:38.654208Z","epoch_age_seconds":153362,"freshness":"FRESH","line1":"1 61702U 24195R   26263.90253072  .00004469  00000+0  14333-3 0  9993","line2":"2 61702  53.1598 324.0632 0001557  70.6787 289.4384 15.34399340107201","mean_motion":15.3439934,"eccentricity":0.0001557,"inclination_deg":53.1598,"raan_deg":324.0632,"arg_perigee_deg":70.6787,"mean_anomaly_deg":289.4384,"bstar":0.00014333,"rev_number":10720,"period_min":93.84779844861,"perigee_km":461.64008273607,"apogee_km":463.77032099773,"semimajor_km":6840.8422018669,"source":"CELESTRAK","updated_at":"2026-09-22T09:00:49.408798Z"}}